User: anonymous   Login
Location: Addison Town Hall
(32.9525°N, 96.8158°W)
Time: 15:06:27
(UTC+00:00)
Language:

Milstar 3 Cent rocket - Orbit

View from above orbital plane
View from above orbital plane
View from above satellite
View from above satellite

Ground track
Ground track

The orbit data is extracted from the following two-line orbital elements,

1 25725U 99023B   21131.81401650 -.00000052  00000-0 -16888-3 0  9990
2 25725  28.3205 337.5674 2385489  16.5032 350.1231  9.67245408 76625
Epoch (UTC): 11 May 2021 19:32:11
Eccentricity: 0.2385489
inclination: 28.3205°
perigee height: 707 km
apogee height: 5146 km
right ascension of ascending node: 337.5674°
argument of perigee: 16.5032°
revolutions per day: 9.67245408
mean anomaly at epoch: 350.1231°
orbit number at epoch: 7662

The dashed part of the orbit path shows where the satellite is in the earth's shadow,  

DLR